www.pogodaiklimat.ru

Погода и климат >> Архив погоды >> Литва >> Klaip?da


АРХИВ ПОГОДЫ в Klaip?da

Время (UTC), дата Ветер
(напр.,м/с)
 
Видим.   Явления Облачность Т
(С)
Тd
(С)
f
(%)
Тe
(С)
Тes
(С)
Комфортность P
(гПа)
Po
(гПа)
Тmin
(С)
Tmax
(С)
R
(мм)
R24
(мм)
S
(см)
06 20.05 С 2-5
{5}
20 км ясно +13.9 +5.0 55 +14 +19 тепло 1027.8 1026.9 +4.7
09 20.05 СЗ 4-6
{6}
20 км ясно +11.5 +5.1 65 +9 +18 по сезону 1028.6 1027.7
12 20.05 СЗ 3-7
{10}
20 км ясно +12.7 +4.1 56 +12 +23 опасность
простуды
1028.5 1027.6
15 20.05 СЗ 4-8
{9}
20 км ясно +13.1 +2.7 49 +12 +16 тепло 1027.8 1026.9
18 20.05 С 4-7
{8}
19 км ясно +13.6 -1.2 36 +12 +13 тепло 1027.5 1026.6 +16.9
21 20.05 С 2-3
{6}
20 км ясно +11.1 +1.3 51 +10 +10 тепло 1028.0 1027.1
00 21.05 СВ 3-6
{7}
20 км ясно +10.7 +3.0 59 +9 +9 по сезону 1028.0 1027.1
03 21.05 СВ 3-6
{6}
20 км 8/0
[Ci sp]
+10.2 +4.1 66 +8 +8 по сезону 1028.4 1027.5
06 21.05 В 2-4
{6}
20 км 8/0
[Ci]
+15.8 +5.1 49 +16 +20 тепло 1028.8 1027.9 +8.9
09 21.05 З 2-4
{5}
19 км 6/0
[Ci sp]
+15.6 +7.6 59 +16 +27 тепло 1028.0 1027.1
12 21.05 СЗ 3-5
{6}
19 км 4/3 1000 м
[Cu med, cong Ci sp]
+15.1 +7.7 61 +14 +22 по сезону 1026.3 1025.4
15 21.05 В 4-7
{9}
20 км 1/1 1000 м
[Cu med, cong]
+24.1 +3.4 26 +23 +27 комфорт 1024.0 1023.1
18 21.05 В 2 20 км ясно +21.0 +5.0 35 +22 +23 комфорт 1023.6 1022.7 +25.2
21 21.05 В 2-3
{6}
20 км ясно +15.1 +5.0 51 +15 +15 тепло 1023.5 1022.6
00 22.05 В 2-4
{4}
20 км 9/0
[Ac und]
+13.2 +5.0 58 +13 +13 тепло 1022.4 1021.5
03 22.05 В 2-3
{4}
20 км 8/0
[Ac und]
+12.3 +5.9 65 +12 +12 тепло 1021.8 1020.9
06 22.05 В 2-5
{5}
20 км в посл. час ливневой дождь 9/9 600 м
[Sc]
+13.9 +9.4 74 +13 +14 тепло 1021.1 1020.2 +12.1 0.2
09 22.05 В 2-5
{8}
20 км 6/6 600 м
[Cu med, cong]
+18.7 +10.2 58 +20 +25 тепло 1020.3 1019.4
12 22.05 СЗ 3-4
{7}
20 км 3/3 600 м
[Cu med, cong]
+17.2 +9.5 61 +17 +25 тепло 1019.4 1018.5
15 22.05 СЗ 3-6
{6}
20 км 4/3 600 м
[Cu med, cong Ci sp]
+19.0 +8.9 52 +20 +23 тепло 1018.9 1018.0
18 22.05 С 1-3
{8}
20 км 8/4 600 м
[Sc Ac und]
+16.4 +8.6 60 +17 +17 тепло 1017.9 1017.0 +22.0
21 22.05 Ю 1-4
{7}
12 км слабый ливневой дождь 10/10 600 м
[Cb cap]
+11.8 +9.7 87 +12 +12 по сезону 1020.2 1019.3
00 23.05 СВ 1-2
{5}
19 км {ливн. осадки} 10/10 600 м
[Sc]
+11.3 +10.9 97 +11 +11 тепло 1019.4 1018.5
03 23.05 С 2-4
{6}
20 км 8/0
[Ac und]
+11.2 +10.3 94 +10 +10 по сезону 1020.4 1019.5
06 23.05 СЗ 1-2
{4}
20 км 4/1 1000 м
[Cu med, cong Ac trans]
+14.3 +11.3 82 +15 +19 тепло 1021.6 1020.7 +11.1 1
09 23.05 СЗ 3-5
{6}
20 км 1/1 1000 м
[Cu med, cong]
+13.8 +10.7 82 +13 +23 по сезону 1023.7 1022.8
12 23.05 СЗ 4-5
{7}
20 км 3/1 1000 м
[Cu med, cong Ci sp]
+14.5 +9.7 73 +13 +21 по сезону 1024.4 1023.5
15 23.05 СЗ 4-6
{7}
20 км 1/0
[Ci fib]
+14.0 +10.4 79 +13 +16 по сезону 1025.0 1024.1
18 23.05 СЗ 3-5
{7}
20 км ясно +12.2 +9.7 85 +11 +11 по сезону 1025.4 1024.5 +16.8
21 23.05 СЗ 2-3
{5}
20 км ясно +10.8 +8.1 83 +9 +9 по сезону 1026.5 1025.6
00 24.05 СВ 3-4
{5}
20 км ясно +12.5 +6.2 65 +11 +11 по сезону 1026.8 1025.9
03 24.05 С 1-1
{5}
20 км ясно +8.4 +6.4 87 +8 +8 по сезону 1027.4 1026.5
06 24.05 СЗ 2-4
{4}
20 км ясно +13.0 +8.1 72 +12 +18 по сезону 1028.0 1027.1 +8.2
09 24.05 СЗ 3-7
{7}
20 км ясно +13.2 +9.9 80 +12 +23 опасность
простуды
1028.5 1027.6
12 24.05 СЗ 4-8
{9}
20 км ясно +12.3 +9.8 85 +10 +20 опасность
простуды
1027.4 1026.5
15 24.05 СЗ 4-8
{9}
20 км ясно +14.7 +6.4 57 +14 +18 по сезону 1025.8 1024.9
18 24.05 СЗ 3-5
{10}
20 км ясно +10.7 +7.0 78 +9 +9 прохладно 1024.8 1023.9 +15.8
21 24.05 СВ 3-6
{6}
20 км ясно +13.5 +5.5 58 +13 +13 тепло 1025.0 1024.1
00 25.05 СВ 2-4
{6}
20 км ясно +13.2 +4.3 55 +13 +13 тепло 1024.9 1024.0
03 25.05 штиль 0-1
{4}
20 км ясно +9.2 +5.1 76 +9 +9 по сезону 1024.9 1024.0
06 25.05 В 2-5
{5}
20 км ясно +18.3 +10.0 58 +19 +24 тепло 1025.3 1024.4 +7.7
09 25.05 В 3-7
{8}
20 км 3/3 600 м
[Cu med, cong]
+25.0 +10.5 40 +26 +34 жарко 1025.2 1024.3
12 25.05 В 5-8
{10}
20 км 3/3 600 м
[Cu med, cong]
+26.4 +8.8 33 +27 +32 жарко 1024.4 1023.5
15 25.05 В 4-8
{10}
20 км 4/4 600 м
[Cu med, cong]
+26.4 +10.2 36 +27 +29 жарко 1023.7 1022.8
18 25.05 В 2-4
{9}
20 км 3/3 600 м
[Sc]
+24.3 +11.4 44 +26 +26 жарко 1024.0 1023.1 +27.8
21 25.05 СВ 2-4
{5}
20 км ясно +20.5 +11.7 57 +23 +23 комфорт 1025.1 1024.2
00 26.05 В 3-4
{6}
20 км ясно +19.1 +11.7 62 +20 +20 тепло 1025.3 1024.4
03 26.05 В 2-3
{5}
20 км 6/6 600 м
[Cu med, cong]
+18.0 +11.9 68 +19 +19 тепло 1025.9 1025.0
06 26.05 В 2-3
{5}
20 км 10/10 600 м
[Cu Sc]
+19.1 +13.5 70 +21 +21 комфорт 1026.4 1025.5
09 26.05 В 1-3
{5}
20 км 10/4 600 м
[Cu Sc Ac As]
+22.0 +13.9 60 +25 +28 комфорт 1026.9 1026.0
12 26.05 СЗ 2-4
{4}
20 км {ливн. осадки} 8/4 1000 м
[Cu Sc Ac trans Ci sp]
+17.0 +13.6 80 +17 +23 тепло 1026.6 1025.7
15 26.05 С 2-4
{6}
11 км гроза, ливневой дождь 10/8 1000 м
[Cb cap Ac As]
+15.4 +14.3 93 +15 +16 по сезону 1026.1 1025.2
18 26.05 З 3-6
{8}
20 км {гроза, ливн. осадки} 10/8 1000 м
[Cb calv Ac As]
+15.3 +14.2 93 +15 +15 тепло 1025.9 1025.0 +22.7 3
21 26.05 СЗ 2-4
{7}
20 км 10/10 1000 м
[Sc]
+15.0 +13.0 88 +15 +15 тепло 1026.0 1025.1
00 27.05 СВ 2-4
{10}
20 км 8/0
[Ac und]
+15.0 +12.3 84 +15 +15 тепло 1025.4 1024.5
03 27.05 В 1-1
{4}
10 км 1/0
[Cc]
+12.3 +11.8 97 +12 +12 по сезону 1025.0 1024.1

 

Местоположение метеостанции Klaip?da (Литва): широта 55.73 долгота 21.07 высота над уровнем моря 7 м.

В архиве по умолчанию представлена погода в Klaip?da за последнюю неделю. Архивные данные за месяц целиком и за предыдущие месяцы, начиная с января 2011 года, Вы можете получить, выбрав интересующий диапазон дат из раскрывающегося списка и нажав кнопку "Ввод!".


*Определитесь, кто Вы:
робот инопланетянин человек

Внимание! Время в таблицах - всемирное. Для получения местного времени необходимо прибавить поправку, которая в Klaip?da равна 2 ч.

Смотрите также архив погоды в соседних городах и на ближайших метеорологических станциях:

Погода в Nidoje (Литва) (46 км)
Погода в ?ilut? (Литва) (49 км)
Погода в Рыбачьем (Калининградская область, Россия) (65 км)
Погода в Laukuvos (Литва) (74 км)
Погода в Tel?i? (Литва) (78 км)
Погода в Liep?ja (Латвия) (83 км)
Погода в Советске (Калининградская область, Россия) (90 км)
Погода в Пионерском (Калининградская область, Россия) (102 км)
Погода в Ma?eikiai (Литва) (104 км)
Погода в Калининграде (Калининградская область, Россия) (118 км)

Пояснения к столбцам:

Ветер - указаны скорость ветра в м/с - средняя за 10 мин, порывы в срок и между сроками (в фигурных скобках) и направление, откуда дует ветер: С - северный, СВ - северо-восточный, В - восточный, ЮВ - юго-восточный, Ю - южный, ЮЗ - юго-западный, З - западный, СЗ - северо-западный.
Видимость - горизонтальная дальность видимости в метрах или километрах. При видимости от 1 до 10 км при отсутствии осадков обычно наблюдается дымка, при ухудшении видимости до 1 км и менее - туман. В сухую погоду видимость может ухудшаться дымом, пылью или мглою.
Явления - указаны атмосферные явления, наблюдавшиеся в срок или в последний час перед сроком; фигурными скобками обозначены явления, наблюдавшиеся между сроками (за 1-3 часа до срока); квадратными скобками обозначены град или гололедные отложения с указанием их диаметра в мм.
Облачность - указаны через наклонную черту общая и нижняя облачность в баллах и высота нижней границы облаков в метрах; квадратными скобками обозначены формы облаков: Ci - перистые, Cs - перисто-слоистые, Cc - перисто-кучевые, Ac - высококучевые, As - высокослоистые, Sc - слоисто-кучевые, Ns - слоисто-дождевые, Cu - кучевые, Cb - кучево-дождевые. Подробнее классификацию облаков см. в Атласе облаков (PDF).
T - Температура воздуха - температура, измеренная на высоте 2 м над землей.
Td - Температура точки росы - температура, при понижении до которой содержащийся в воздухе водяной пар достигнет насыщения.
f - Относительная влажность воздуха - влажноcть воздуха, измеренная на высоте 2 м над землей.
Te - Эффективная температура - температура, которую ощущает одетый по сезону человек в тени. Характеристика душности погоды. При расчете учитывается влияние влажности воздуха и скорости ветра на теплоощущения человека.
Tes - Эффективная температура на солнце - температура, которую ощущает человек, с поправкой на солнечный нагрев. Характеристика знойности погоды. Зависит от высоты солнца над горизонтом, облачности и скорости ветра. Ночью, в пасмурную погоду, а также при ветре 12 м/с и более поправка равна нулю.
P - Атмосферное давление - приведенное к уровню моря атмосферное давление.
Po - Атмосферное давление - измеренное на уровне метеостанции атмосферное давление.
Tmin - Минимальная температура - минимум температуры воздуха на высоте 2 м над землей.
Tmax - Максимальная температура - максимум температуры воздуха на высоте 2 м над землей.
R - Количество осадков - Количество выпавших осадков за период времени, мм. При наведении курсора мыши на число - период времени, за который выпало указанное количество осадков.
R24 - Количество осадков - Количество выпавших осадков за 24 часа, мм.
S - Снежный покров - Высота снежного покрова, см. При наведении курсора мыши на число - состояние снежного покрова и степень покрытия местности в баллах.